| time (UTC) | temp F | wind direction | speed knots | gust knots | rain 1hr in | rain 24hr in | rain mn in | humidity % | barometer mb |
| 20260503200330 | 65 | 217 | 3.5 | 7.8 | 0.00 | 0.00 | 0.00 | 44 | 1007.1 |
| 20260503195855 | 65 | 217 | 4.3 | 8.7 | 0.00 | 0.00 | 0.00 | 45 | 1007.1 |
| 20260503195329 | 65 | 210 | 6.1 | 8.7 | 0.00 | 0.00 | 0.00 | 43 | 1007.1 |
| 20260503194833 | 65 | 211 | 4.3 | 9.6 | 0.00 | 0.00 | 0.00 | 42 | 1007.3 |
| 20260503194338 | 65 | 205 | 6.1 | 13.0 | 0.00 | 0.00 | 0.00 | 43 | 1007.1 |
| 20260503193902 | 65 | 191 | 7.0 | 13.0 | 0.00 | 0.00 | 0.00 | 44 | 1007.1 |
| 20260503193346 | 65 | 209 | 5.2 | 9.6 | 0.00 | 0.00 | 0.00 | 43 | 1007.0 |
| 20260503192850 | 65 | 238 | 5.2 | 12.2 | 0.00 | 0.00 | 0.00 | 44 | 1007.2 |
| 20260503192347 | 65 | 166 | 3.5 | 7.0 | 0.00 | 0.00 | 0.00 | 45 | 1007.3 |
| 20260503191830 | 65 | 249 | 4.3 | 10.4 | 0.00 | 0.00 | 0.00 | 44 | 1007.5 |
| 20260503191334 | 65 | 230 | 7.0 | 10.4 | 0.00 | 0.00 | 0.00 | 41 | 1007.5 |
| 20260503190838 | 65 | 221 | 4.3 | 7.8 | 0.00 | 0.00 | 0.00 | 40 | 1007.5 |
| 20260503190343 | 65 | 221 | 4.3 | 9.6 | 0.00 | 0.00 | 0.00 | 44 | 1007.8 |
| 20260503185831 | 64 | 227 | 4.3 | 12.2 | 0.00 | 0.00 | 0.00 | 42 | 1007.9 |
| 20260503185405 | 64 | 213 | 4.3 | 10.4 | 0.00 | 0.00 | 0.00 | 41 | 1008.0 |
| 20260503184908 | 64 | 192 | 4.3 | 12.2 | 0.00 | 0.00 | 0.00 | 41 | 1008.4 |
| 20260503184331 | 64 | 220 | 7.8 | 12.2 | 0.00 | 0.00 | 0.00 | 40 | 1008.3 |
| 20260503183835 | 64 | 223 | 5.2 | 12.2 | 0.00 | 0.00 | 0.00 | 40 | 1008.4 |
| 20260503183401 | 64 | 225 | 7.0 | 12.2 | 0.00 | 0.00 | 0.00 | 42 | 1008.5 |
| 20260503182904 | 64 | 237 | 4.3 | 10.4 | 0.00 | 0.00 | 0.00 | 38 | 1008.6 |
| 20260503182340 | 64 | 238 | 7.0 | 10.4 | 0.00 | 0.00 | 0.00 | 41 | 1008.9 |
| 20260503181843 | 64 | 229 | 4.3 | 8.7 | 0.00 | 0.00 | 0.00 | 42 | 1008.8 |
| 20260503181407 | 64 | 212 | 5.2 | 8.7 | 0.00 | 0.00 | 0.00 | 39 | 1008.9 |
| 20260503180830 | 63 | 217 | 2.6 | 10.4 | 0.00 | 0.00 | 0.00 | 42 | 1008.9 |
| 20260503180334 | 63 | 222 | 4.3 | 10.4 | 0.00 | 0.00 | 0.00 | 42 | 1009.1 |
| 20260503175858 | 63 | 184 | 6.1 | 13.0 | 0.00 | 0.00 | 0.00 | 40 | 1009.1 |
| 20260503175354 | 63 | 227 | 6.1 | 13.0 | 0.00 | 0.00 | 0.00 | 43 | 1009.2 |
| 20260503174857 | 63 | 187 | 6.1 | 11.3 | 0.00 | 0.00 | 0.00 | 39 | 1009.2 |
| 20260503174400 | 64 | 180 | 3.5 | 7.8 | 0.00 | 0.00 | 0.00 | 40 | 1009.2 |
| 20260503173844 | 63 | 233 | 3.5 | 7.8 | 0.00 | 0.00 | 0.00 | 38 | 1009.3 |
| 20260503173408 | 63 | 234 | 5.2 | 8.7 | 0.00 | 0.00 | 0.00 | 39 | 1009.4 |
| 20260503172831 | 63 | 214 | 4.3 | 12.2 | 0.00 | 0.00 | 0.00 | 40 | 1009.4 |
| 20260503172328 | 63 | 173 | 5.2 | 10.4 | 0.00 | 0.00 | 0.00 | 37 | 1009.5 |
| 20260503171836 | 63 | 202 | 5.2 | 10.4 | 0.00 | 0.00 | 0.00 | 41 | 1009.5 |
| 20260503171341 | 63 | 139 | 5.2 | 10.4 | 0.00 | 0.00 | 0.00 | 43 | 1009.5 |
| 20260503170904 | 62 | 220 | 3.5 | 8.7 | 0.00 | 0.00 | 0.00 | 38 | 1009.7 |
| 20260503170328 | 62 | 236 | 4.3 | 8.7 | 0.00 | 0.00 | 0.00 | 38 | 1009.7 |
| 20260503150857 | 59 | 202 | 2.6 | 6.1 | 0.00 | 0.00 | 0.00 | 50 | 1011.5 |
| 20260503150341 | 59 | 227 | 3.5 | 6.1 | 0.00 | 0.00 | 0.00 | 46 | 1011.6 |
| 20260503131331 | 48 | 218 | 2.6 | 5.2 | 0.00 | 0.00 | 0.00 | 70 | 1011.9 |
| 20260503130840 | 47 | 199 | 3.5 | 5.2 | 0.00 | 0.00 | 0.00 | 71 | 1012.0 |
| 20260503130403 | 47 | 213 | 2.6 | 5.2 | 0.00 | 0.00 | 0.00 | 71 | 1012.0 |
| 20260503110354 | 36 | 217 | 0.9 | 1.7 | 0.00 | 0.00 | 0.00 | 86 | 1011.1 |
| 20260503090354 | 36 | 271 | 0.9 | 1.7 | 0.00 | 0.00 | 0.00 | 87 | 1010.8 |
| 20260503081357 | 37 | 340 | 0.0 | 0.0 | 0.00 | 0.00 | 0.00 | 86 | 1010.7 |
| 20260503080859 | 37 | 340 | 0.0 | 0.0 | 0.00 | 0.00 | 0.00 | 86 | 1010.7 |
| 20260503080402 | 37 | 340 | 0.0 | 0.0 | 0.00 | 0.00 | 0.00 | 86 | 1010.7 |
| 20260503072857 | 37 | 340 | 0.0 | 0.0 | 0.00 | 0.00 | 0.00 | 86 | 1010.7 |
| 20260503072354 | 37 | 340 | 0.0 | 0.0 | 0.00 | 0.00 | 0.00 | 86 | 1010.6 |
| 20260503071837 | 37 | 340 | 0.0 | 0.0 | 0.00 | 0.00 | 0.00 | 85 | 1010.7 |
| 20260503071400 | 37 | 340 | 0.0 | 0.0 | 0.00 | 0.00 | 0.00 | 86 | 1010.7 |
| 20260503070843 | 37 | 340 | 0.0 | 0.0 | 0.00 | 0.00 | 0.00 | 85 | 1010.7 |
| 20260503070331 | 38 | 340 | 0.0 | 0.0 | 0.00 | 0.00 | 0.00 | 85 | 1010.6 |
| 20260503054838 | 38 | 340 | 0.0 | 0.0 | 0.00 | 0.00 | 0.00 | 82 | 1011.2 |
| 20260503054342 | 38 | 340 | 0.0 | 0.0 | 0.00 | 0.00 | 0.00 | 82 | 1011.2 |
| 20260503053907 | 38 | 340 | 0.0 | 0.0 | 0.00 | 0.00 | 0.00 | 81 | 1011.1 |
| 20260503053351 | 38 | 340 | 0.0 | 0.0 | 0.00 | 0.00 | 0.00 | 81 | 1011.2 |
| 20260503052853 | 38 | 340 | 0.0 | 0.0 | 0.00 | 0.00 | 0.00 | 80 | 1011.3 |
| 20260503052349 | 38 | 340 | 0.0 | 0.0 | 0.00 | 0.00 | 0.00 | 80 | 1011.3 |
| 20260503051832 | 38 | 340 | 0.0 | 0.0 | 0.00 | 0.00 | 0.00 | 80 | 1011.3 |
| 20260503051357 | 38 | 340 | 0.0 | 0.0 | 0.00 | 0.00 | 0.00 | 79 | 1011.3 |
| 20260503050839 | 38 | 340 | 0.0 | 0.0 | 0.00 | 0.00 | 0.00 | 79 | 1011.3 |
| 20260503050327 | 39 | 340 | 0.0 | 0.0 | 0.00 | 0.00 | 0.00 | 78 | 1011.4 |
| 20260503045831 | 39 | 340 | 0.0 | 0.0 | 0.00 | 0.00 | 0.00 | 78 | 1011.4 |
| 20260503045407 | 39 | 340 | 0.0 | 0.0 | 0.00 | 0.00 | 0.00 | 78 | 1011.3 |
| 20260503044830 | 39 | 340 | 0.0 | 0.0 | 0.00 | 0.00 | 0.00 | 77 | 1011.2 |
| 20260503044334 | 39 | 340 | 0.0 | 0.0 | 0.00 | 0.00 | 0.00 | 76 | 1011.2 |
| 20260503043859 | 39 | 340 | 0.0 | 0.0 | 0.00 | 0.00 | 0.00 | 76 | 1011.1 |
| 20260503043341 | 39 | 340 | 0.0 | 0.0 | 0.00 | 0.00 | 0.00 | 75 | 1011.0 |
| 20260503042905 | 39 | 340 | 0.0 | 0.0 | 0.00 | 0.00 | 0.00 | 75 | 1011.0 |
| 20260503042359 | 40 | 340 | 0.0 | 0.0 | 0.00 | 0.00 | 0.00 | 74 | 1011.0 |
| 20260503041841 | 40 | 340 | 0.0 | 0.0 | 0.00 | 0.00 | 0.00 | 74 | 1010.9 |
| 20260503041345 | 40 | 340 | 0.0 | 0.0 | 0.00 | 0.00 | 0.00 | 73 | 1011.0 |
| 20260503040829 | 40 | 340 | 0.0 | 0.0 | 0.00 | 0.00 | 0.00 | 73 | 1010.9 |
| 20260503040333 | 40 | 340 | 0.0 | 0.0 | 0.00 | 0.00 | 0.00 | 72 | 1010.9 |
| 20260503035857 | 40 | 340 | 0.0 | 0.0 | 0.00 | 0.00 | 0.00 | 72 | 1010.9 |
| 20260503035352 | 40 | 340 | 0.0 | 0.0 | 0.00 | 0.00 | 0.00 | 72 | 1011.0 |
| 20260503034855 | 41 | 340 | 0.0 | 0.0 | 0.00 | 0.00 | 0.00 | 71 | 1011.1 |
| 20260503034357 | 41 | 340 | 0.0 | 0.0 | 0.00 | 0.00 | 0.00 | 71 | 1011.0 |
| 20260503033840 | 41 | 340 | 0.0 | 0.0 | 0.00 | 0.00 | 0.00 | 70 | 1011.0 |
| 20260503033404 | 41 | 340 | 0.0 | 0.0 | 0.00 | 0.00 | 0.00 | 70 | 1011.0 |
| 20260503032907 | 41 | 340 | 0.0 | 0.0 | 0.00 | 0.00 | 0.00 | 70 | 1011.1 |
| 20260503032342 | 42 | 340 | 0.0 | 0.0 | 0.00 | 0.00 | 0.00 | 70 | 1011.2 |
| 20260503031850 | 42 | 340 | 0.0 | 0.0 | 0.00 | 0.00 | 0.00 | 69 | 1011.2 |
| 20260503031353 | 42 | 340 | 0.0 | 0.0 | 0.00 | 0.00 | 0.00 | 69 | 1011.2 |
| 20260503030836 | 42 | 340 | 0.0 | 0.0 | 0.00 | 0.00 | 0.00 | 69 | 1011.2 |
| 20260503030340 | 42 | 340 | 0.0 | 0.0 | 0.00 | 0.00 | 0.00 | 68 | 1011.2 |
| 20260503025904 | 43 | 340 | 0.0 | 0.0 | 0.00 | 0.00 | 0.00 | 68 | 1011.2 |
| 20260503025339 | 43 | 340 | 0.0 | 0.0 | 0.00 | 0.00 | 0.00 | 67 | 1011.2 |
| 20260503024842 | 43 | 340 | 0.0 | 0.0 | 0.00 | 0.00 | 0.00 | 66 | 1011.2 |
| 20260503024346 | 43 | 340 | 0.0 | 0.0 | 0.00 | 0.00 | 0.00 | 66 | 1011.2 |
| 20260503023829 | 44 | 340 | 0.0 | 0.0 | 0.00 | 0.00 | 0.00 | 65 | 1011.2 |
| 20260503023353 | 44 | 340 | 0.0 | 0.0 | 0.00 | 0.00 | 0.00 | 65 | 1011.1 |
| 20260503022856 | 44 | 340 | 0.0 | 0.0 | 0.00 | 0.00 | 0.00 | 65 | 1011.0 |
| 20260503022330 | 44 | 340 | 0.0 | 0.0 | 0.00 | 0.00 | 0.00 | 65 | 1011.0 |
| 20260503021854 | 45 | 340 | 0.0 | 0.0 | 0.00 | 0.00 | 0.00 | 64 | 1011.0 |
| 20260503021357 | 45 | 340 | 0.0 | 0.0 | 0.00 | 0.00 | 0.00 | 63 | 1011.1 |
| 20260503020859 | 45 | 340 | 0.0 | 0.0 | 0.00 | 0.00 | 0.00 | 62 | 1011.0 |
| 20260503020402 | 46 | 340 | 0.0 | 0.0 | 0.00 | 0.00 | 0.00 | 61 | 1010.9 |
| 20260503015905 | 46 | 340 | 0.0 | 0.0 | 0.00 | 0.00 | 0.00 | 61 | 1010.9 |
| 20260503015340 | 46 | 340 | 0.0 | 0.0 | 0.00 | 0.00 | 0.00 | 60 | 1010.8 |
| 20260503014904 | 47 | 340 | 0.0 | 0.0 | 0.00 | 0.00 | 0.00 | 59 | 1010.8 |
| 20260503014328 | 47 | 340 | 0.0 | 0.0 | 0.00 | 0.00 | 0.00 | 58 | 1010.7 |
| 20260503013831 | 47 | 340 | 0.0 | 0.0 | 0.00 | 0.00 | 0.00 | 57 | 1010.6 |
| 20260503013339 | 48 | 340 | 0.0 | 0.0 | 0.00 | 0.00 | 0.00 | 55 | 1010.6 |
| 20260503012844 | 48 | 340 | 0.0 | 0.0 | 0.00 | 0.00 | 0.00 | 54 | 1010.5 |
| 20260503012401 | 48 | 340 | 0.0 | 0.0 | 0.00 | 0.00 | 0.00 | 53 | 1010.5 |
| 20260503011905 | 49 | 340 | 0.0 | 0.9 | 0.00 | 0.00 | 0.00 | 53 | 1010.4 |
| 20260503011327 | 49 | 340 | 0.0 | 0.9 | 0.00 | 0.00 | 0.00 | 52 | 1010.3 |
| 20260503010851 | 49 | 340 | 0.0 | 0.0 | 0.00 | 0.00 | 0.00 | 52 | 1010.2 |
| 20260503010334 | 49 | 340 | 0.0 | 0.9 | 0.00 | 0.00 | 0.00 | 51 | 1010.2 |
| 20260503005857 | 50 | 340 | 0.0 | 0.9 | 0.00 | 0.00 | 0.00 | 51 | 1010.2 |
| 20260503005332 | 50 | 340 | 0.0 | 1.7 | 0.00 | 0.00 | 0.00 | 49 | 1010.2 |
| 20260503004836 | 50 | 340 | 0.9 | 1.7 | 0.00 | 0.00 | 0.00 | 49 | 1010.2 |
| 20260503004401 | 50 | 348 | 0.9 | 2.6 | 0.00 | 0.00 | 0.00 | 49 | 1010.2 |
| 20260503003843 | 50 | 355 | 0.9 | 2.6 | 0.00 | 0.00 | 0.00 | 48 | 1010.1 |
| 20260503003346 | 51 | 355 | 0.9 | 1.7 | 0.00 | 0.00 | 0.00 | 47 | 1010.0 |
| 20260503002829 | 51 | 344 | 0.9 | 4.3 | 0.00 | 0.00 | 0.00 | 46 | 1010.0 |
| 20260503002345 | 51 | 334 | 1.7 | 4.3 | 0.00 | 0.00 | 0.00 | 46 | 1010.0 |
| 20260503001850 | 51 | 22 | 1.7 | 5.2 | 0.00 | 0.00 | 0.00 | 46 | 1010.0 |
| 20260503001353 | 52 | 30 | 1.7 | 5.2 | 0.00 | 0.00 | 0.00 | 46 | 1009.9 |
| 20260503000835 | 52 | 19 | 2.6 | 5.2 | 0.00 | 0.00 | 0.00 | 44 | 1009.8 |
| 20260503000343 | 52 | 306 | 1.7 | 7.0 | 0.00 | 0.00 | 0.00 | 45 | 1009.8 |
| 20260502235907 | 52 | 30 | 3.5 | 7.0 | 0.00 | 0.00 | 0.00 | 44 | 1009.7 |
| 20260502235343 | 52 | 360 | 1.7 | 7.0 | 0.00 | 0.00 | 0.00 | 44 | 1009.8 |
| 20260502234907 | 53 | 19 | 2.6 | 8.7 | 0.00 | 0.00 | 0.00 | 44 | 1009.7 |
| 20260502234351 | 53 | 44 | 3.5 | 8.7 | 0.00 | 0.00 | 0.00 | 44 | 1009.8 |
| 20260502233853 | 53 | 340 | 5.2 | 11.3 | 0.00 | 0.00 | 0.00 | 43 | 1009.7 |
| 20260502233336 | 53 | 17 | 4.3 | 11.3 | 0.00 | 0.00 | 0.00 | 44 | 1009.7 |
| 20260502232841 | 53 | 317 | 5.2 | 9.6 | 0.00 | 0.00 | 0.00 | 42 | 1009.7 |
| 20260502232357 | 54 | 351 | 4.3 | 9.6 | 0.00 | 0.00 | 0.00 | 43 | 1009.7 |
| 20260502231859 | 54 | 9 | 2.6 | 5.2 | 0.00 | 0.00 | 0.00 | 43 | 1009.7 |
| 20260502231342 | 54 | 11 | 2.6 | 7.0 | 0.00 | 0.00 | 0.00 | 43 | 1009.6 |
| 20260502230827 | 54 | 9 | 3.5 | 9.6 | 0.00 | 0.00 | 0.00 | 43 | 1009.7 |
| 20260502230331 | 54 | 5 | 3.5 | 9.6 | 0.00 | 0.00 | 0.00 | 41 | 1009.7 |
| 20260502225834 | 54 | 333 | 3.5 | 8.7 | 0.00 | 0.00 | 0.00 | 41 | 1009.6 |
| 20260502225327 | 55 | 9 | 4.3 | 8.7 | 0.00 | 0.00 | 0.00 | 42 | 1009.6 |
| 20260502224851 | 55 | 5 | 3.5 | 7.0 | 0.00 | 0.00 | 0.00 | 41 | 1009.5 |
| 20260502224355 | 55 | 360 | 0.9 | 4.3 | 0.00 | 0.00 | 0.00 | 43 | 1009.5 |
| 20260502223837 | 55 | 323 | 1.7 | 4.3 | 0.00 | 0.00 | 0.00 | 42 | 1009.5 |
| 20260502223341 | 55 | 299 | 1.7 | 7.0 | 0.00 | 0.00 | 0.00 | 43 | 1009.6 |
| 20260502222830 | 54 | 286 | 2.6 | 7.0 | 0.00 | 0.00 | 0.00 | 40 | 1009.6 |
| 20260502222347 | 54 | 13 | 3.5 | 7.0 | 0.00 | 0.00 | 0.00 | 41 | 1009.6 |
| 20260502221832 | 55 | 31 | 2.6 | 8.7 | 0.00 | 0.00 | 0.00 | 41 | 1009.5 |
| 20260502221335 | 55 | 300 | 1.7 | 8.7 | 0.00 | 0.00 | 0.00 | 42 | 1009.6 |
| 20260502220859 | 55 | 271 | 3.5 | 8.7 | 0.00 | 0.00 | 0.00 | 41 | 1009.4 |
| 20260502215846 | 55 | 281 | 2.6 | 6.1 | 0.00 | 0.00 | 0.00 | 39 | 1009.5 |
| 20260502215403 | 55 | 5 | 1.7 | 8.7 | 0.00 | 0.00 | 0.00 | 41 | 1009.4 |
| 20260502214845 | 56 | 338 | 3.5 | 8.7 | 0.00 | 0.00 | 0.00 | 39 | 1009.4 |
| 20260502214330 | 56 | 333 | 3.5 | 7.8 | 0.00 | 0.00 | 0.00 | 39 | 1009.5 |
| 20260502213855 | 56 | 17 | 1.7 | 7.0 | 0.00 | 0.00 | 0.00 | 41 | 1009.3 |
| 20260502213338 | 56 | 19 | 2.6 | 7.8 | 0.00 | 0.00 | 0.00 | 42 | 1009.4 |
| 20260502212842 | 56 | 275 | 4.3 | 10.4 | 0.00 | 0.00 | 0.00 | 39 | 1009.4 |
| 20260502212358 | 57 | 15 | 2.6 | 11.3 | 0.00 | 0.00 | 0.00 | 43 | 1009.3 |
| 20260502211901 | 57 | 326 | 5.2 | 11.3 | 0.00 | 0.00 | 0.00 | 42 | 1009.4 |
| 20260502211329 | 56 | 290 | 1.7 | 7.8 | 0.00 | 0.00 | 0.00 | 42 | 1009.3 |
| 20260502210832 | 56 | 355 | 0.9 | 12.2 | 0.00 | 0.00 | 0.00 | 43 | 1009.2 |
| 20260502210336 | 57 | 334 | 5.2 | 12.2 | 0.00 | 0.00 | 0.00 | 41 | 1009.3 |
| 20260502205841 | 57 | 297 | 5.2 | 10.4 | 0.00 | 0.00 | 0.00 | 43 | 1009.2 |
| 20260502205357 | 57 | 5 | 2.6 | 9.6 | 0.00 | 0.00 | 0.00 | 43 | 1009.4 |
| 20260502204901 | 57 | 30 | 3.5 | 7.0 | 0.00 | 0.00 | 0.00 | 44 | 1009.3 |
| 20260502204344 | 57 | 5 | 2.6 | 13.0 | 0.00 | 0.00 | 0.00 | 44 | 1009.4 |
| 20260502203828 | 57 | 14 | 7.0 | 13.0 | 0.00 | 0.00 | 0.00 | 43 | 1009.4 |
| 20260502203352 | 57 | 355 | 4.3 | 11.3 | 0.00 | 0.00 | 0.00 | 43 | 1009.4 |
| 20260502202835 | 57 | 339 | 4.3 | 9.6 | 0.00 | 0.00 | 0.00 | 41 | 1009.4 |
| 20260502202332 | 57 | 9 | 3.5 | 7.0 | 0.00 | 0.00 | 0.00 | 39 | 1009.6 |
| 20260502201836 | 57 | 227 | 0.9 | 7.0 | 0.00 | 0.00 | 0.00 | 40 | 1009.6 |
| 20260502201340 | 57 | 327 | 1.7 | 8.7 | 0.00 | 0.00 | 0.00 | 41 | 1009.5 |
| 20260502200904 | 57 | 360 | 3.5 | 8.7 | 0.00 | 0.00 | 0.00 | 41 | 1009.6 |